Wind_Speed
33 32 32 32 32 31 28 25 23 23 23 22 21 20 19 18 18 17 16 15 15 14 12 11 11 10 9 9 9 8 8 7 7 6 6 6 6 6 6 6 6 6 7 7 7 8 8 9 9
34 34 34 34 34 32 28 25 24 24 24 24 23 21 20 19 18 18 17 17 16 15 14 13 13 12 11 11 10 10 10 9 9 8 8 8 8 8 7 7 8 8 8 9 9 10 10 10 10
36 36 36 36 35 32 28 26 26 26 25 25 24 23 22 21 19 19 18 18 18 17 16 15 14 13 13 12 11 11 11 10 10 9 9 9 9 9 9 10 10 10 10 11 11 11 11 11 11
37 38 38 38 35 32 30 28 28 27 27 26 25 24 23 22 21 20 20 19 19 18 17 17 16 15 14 14 13 13 12 12 12 11 11 11 11 11 11 12 12 12 12 12 13 12 12 13 13
38 39 40 39 36 32 31 31 30 29 28 27 26 25 24 23 22 21 21 20 20 19 19 18 17 17 16 15 15 14 14 14 13 13 13 13 13 13 14 14 14 14 14 14 14 14 14 14 14
40 40 41 39 36 33 33 33 32 31 29 28 27 26 25 24 23 23 22 21 20 20 19 19 18 18 17 17 17 16 15 15 15 15 15 15 15 15 15 16 16 15 15 15 15 15 15 15 15
42 41 40 39 37 35 34 34 34 33 31 30 29 27 26 25 25 24 23 23 22 21 20 20 19 19 19 18 18 18 17 17 16 16 16 17 17 17 17 17 17 16 16 17 17 17 17 17 17
43 42 41 39 38 36 35 35 35 35 33 32 30 29 27 27 26 25 25 24 23 22 22 22 21 20 20 20 19 19 19 19 18 18 18 18 18 19 18 18 18 18 18 18 18 18 18 19 19
44 44 41 39 38 36 36 37 37 37 35 33 32 30 29 29 28 27 26 26 25 24 24 23 23 22 22 21 21 21 21 20 20 20 20 19 20 20 20 19 19 19 19 19 19 19 19 20 20
46 45 41 40 39 38 38 38 38 38 37 35 34 32 31 30 29 28 27 27 27 26 25 25 24 24 23 22 22 22 22 22 22 21 21 21 21 21 20 20 20 20 20 20 20 20 20 21 21
48 45 42 42 41 40 40 40 39 39 37 36 35 33 32 31 30 30 29 29 28 27 26 26 25 25 24 24 23 23 23 23 22 22 22 21 21 21 21 20 20 20 21 21 21 21 22 22 22
48 46 45 44 43 42 41 41 40 39 38 37 36 35 34 33 32 31 30 30 29 29 28 27 26 26 25 25 25 25 24 23 23 23 23 22 22 21 21 21 21 21 21 22 22 22 23 23 23
48 47 46 45 44 43 42 42 41 39 39 38 37 36 35 34 33 32 31 31 30 29 28 28 27 26 26 26 26 26 25 24 24 24 23 23 22 22 22 22 22 22 22 22 23 23 23 24 24
48 47 47 46 45 44 43 43 42 40 40 39 38 37 36 35 34 33 32 31 30 30 29 29 28 27 27 27 27 27 26 26 25 25 24 24 24 24 23 23 23 23 23 24 24 24 25 25 25
48 48 48 47 46 44 44 44 43 41 41 40 39 38 37 36 35 34 33 32 31 31 30 30 29 29 28 28 28 28 27 27 26 26 26 25 25 25 25 24 25 25 25 25 26 26 26 26 26
48 49 49 47 46 45 46 44 43 43 43 41 40 39 38 37 36 35 34 33 32 32 31 31 31 30 29 29 28 28 29 28 27 27 27 27 27 27 26 26 26 27 27 27 27 27 28 28 29
49 49 48 46 47 46 47 44 44 44 44 43 41 40 39 37 36 35 34 34 33 32 32 32 31 31 30 30 29 29 30 30 29 29 28 28 28 28 28 28 28 29 29 29 30 30 30 31 31
46 47 46 46 46 47 47 45 44 45 45 43 42 41 39 37 36 36 35 35 34 34 33 33 32 32 31 31 31 31 31 31 31 31 30 30 29 29 30 30 30 31 31 32 32 33 33 34 34
44 45 45 45 46 48 48 46 45 46 45 44 43 41 40 39 37 37 37 36 36 35 34 34 33 33 33 32 32 32 32 32 32 32 32 32 31 32 32 32 32 33 34 34 35 36 36 36 37
45 45 45 45 46 48 48 47 46 46 45 44 43 42 41 40 39 39 38 37 36 36 35 34 34 34 34 34 33 33 33 34 34 33 33 33 33 33 34 34 35 35 36 36 37 38 38 39 39
45 45 43 44 46 47 48 48 46 45 45 44 43 42 41 40 40 39 39 38 37 36 36 35 35 35 35 34 34 34 34 35 35 35 35 35 35 35 36 36 36 37 37 38 39 39 39 40 40
45 45 43 43 44 46 48 49 47 45 45 44 44 43 42 41 40 39 39 39 38 37 36 36 36 36 36 35 35 35 36 36 36 36 36 37 37 37 37 38 38 39 39 40 40 40 41 41 41
42 43 43 43 43 45 47 49 47 46 45 43 43 43 42 41 40 39 39 39 39 39 38 37 37 37 37 37 37 37 37 37 37 37 37 38 38 39 39 39 40 40 40 41 41 42 42 43 43
40 41 42 43 44 47 47 49 48 46 44 42 42 42 42 42 41 41 40 40 40 40 40 39 39 39 38 39 39 38 38 39 39 39 39 39 40 40 41 41 41 42 42 42 43 43 44 44 45
39 40 42 44 46 46 45 48 47 43 43 42 42 42 42 42 42 42 41 40 40 41 41 41 40 40 40 40 40 40 40 40 40 40 40 40 41 41 41 42 42 43 43 43 44 44 45 46 46
38 39 41 43 44 44 44 46 46 43 42 42 42 42 43 43 43 42 42 41 41 41 42 42 42 41 41 41 41 41 41 42 42 42 41 42 42 42 42 43 43 44 44 45 45 46 46 47 48
37 38 40 41 41 42 44 44 44 42 42 42 42 42 42 42 43 43 42 41 41 41 42 43 43 43 43 43 43 42 43 43 43 43 43 43 43 43 44 44 45 45 45 46 47 48 48 49 50
36 38 39 40 40 42 43 43 42 41 40 40 41 41 41 41 42 43 43 42 42 42 42 42 43 43 43 44 44 43 43 43 43 43 44 44 44 45 45 46 46 46 47 48 49 49 49 50 51
36 38 40 40 41 40 42 42 41 40 40 40 40 41 41 41 42 42 42 43 43 43 43 43 44 44 44 45 45 45 45 45 45 45 45 45 46 46 46 47 47 47 48 48 49 49 49 50 51
36 37 39 40 41 41 41 40 39 39 38 39 39 40 40 41 41 42 42 43 44 43 43 44 44 45 45 46 46 46 46 46 46 46 46 46 47 47 47 47 47 48 48 49 50 50 51 51 52
Wind_Direction
235 235 236 236 237 237 237 237 237 235 235 236 236 237 238 237 237 237 236 237 238 238 239 241 244 247 251 255 257 259 259 259 262 265 268 269 274 279 282 288 293 298 301 304 306 309 311 312 310
235 235 236 236 237 238 238 238 238 236 235 235 236 238 238 238 238 238 238 238 238 239 240 242 245 248 252 256 257 258 259 260 262 264 266 268 271 275 279 283 287 291 293 294 298 300 301 303 304
235 234 236 236 237 238 238 237 237 236 236 236 237 238 238 238 238 239 240 241 240 240 241 243 244 248 251 254 256 257 258 260 261 263 265 268 271 274 278 279 284 288 290 290 292 294 295 296 298
236 235 236 237 237 237 237 236 236 236 236 236 237 237 238 239 240 240 241 242 241 240 240 243 246 248 250 251 253 255 257 260 262 263 266 269 271 274 278 280 282 285 287 288 289 290 291 293 295
236 236 237 237 237 236 236 235 236 236 236 236 236 237 238 239 239 240 241 241 241 241 241 243 246 248 249 251 252 254 257 259 261 263 265 268 271 274 278 281 282 283 285 287 288 290 291 291 292
236 237 238 238 237 235 235 235 235 236 236 235 235 235 237 239 239 239 241 242 241 242 243 244 245 246 247 249 251 254 256 259 261 263 265 268 271 274 277 279 281 281 284 285 287 289 290 291 292
236 237 238 237 235 234 234 234 235 236 235 235 235 235 236 239 240 239 240 242 242 242 243 244 245 246 247 249 251 254 257 259 262 265 266 268 271 273 276 277 278 279 281 282 284 287 289 290 291
236 237 237 236 235 233 233 234 235 235 234 234 234 235 235 238 240 241 241 242 243 243 244 245 246 248 249 250 251 254 257 259 262 265 267 268 270 273 275 275 275 277 278 281 283 285 287 289 290
235 236 236 236 235 233 233 234 234 235 234 234 234 235 235 238 240 241 242 243 244 244 244 245 247 248 249 251 252 254 257 259 262 265 267 269 271 272 273 274 275 276 277 281 283 285 287 289 290
234 236 236 236 235 233 233 233 233 234 234 234 234 234 235 238 239 241 242 243 244 244 245 245 246 248 249 251 252 254 257 260 262 264 266 268 270 271 272 274 275 275 277 280 283 284 286 287 289
234 235 235 235 234 233 232 233 232 233 233 234 235 234 236 237 239 241 242 243 244 245 245 245 246 247 249 251 253 254 256 259 261 263 265 267 270 270 271 273 274 275 277 279 282 284 285 287 288
233 233 233 234 234 233 232 232 232 233 233 233 233 234 235 236 238 240 241 242 243 244 245 246 246 247 249 251 252 255 257 259 260 261 264 266 268 269 270 272 273 274 276 278 281 283 285 286 287
233 232 232 232 233 232 232 232 232 232 232 232 232 233 235 236 237 239 240 241 241 242 244 245 246 247 248 250 252 254 256 257 258 260 262 264 267 268 269 270 271 272 275 277 280 282 284 285 286
232 232 232 232 232 232 232 231 231 231 232 232 232 233 235 236 238 238 238 239 240 241 242 243 244 247 249 251 253 254 256 257 258 260 262 264 266 267 267 269 270 272 274 277 280 281 283 284 285
231 231 231 231 231 232 232 231 231 231 232 232 232 234 235 237 238 238 238 238 239 240 242 243 244 247 250 252 253 255 256 257 258 259 262 264 265 266 266 268 270 273 275 277 279 280 281 283 285
229 230 230 230 231 231 232 231 231 231 232 233 233 234 235 236 237 237 238 238 239 240 242 244 246 249 251 253 253 254 255 256 257 259 261 263 264 265 266 268 270 272 275 276 277 279 281 282 284
229 230 230 229 231 231 232 231 230 232 232 233 233 233 234 236 237 237 238 239 240 241 243 245 247 249 251 253 253 254 254 255 257 259 261 262 263 264 266 269 271 272 275 276 277 278 280 282 284
230 231 231 230 230 231 232 231 229 231 231 232 233 233 234 236 236 237 238 239 239 241 243 245 247 249 251 252 254 254 254 254 256 258 260 261 263 264 267 269 271 273 275 276 277 278 280 281 283
229 230 230 230 229 230 231 230 229 230 231 231 233 234 234 235 235 236 238 239 240 241 243 245 246 249 251 252 253 254 255 255 256 258 259 260 262 265 267 270 272 274 274 275 277 278 280 281 283
228 228 228 229 229 230 230 229 229 230 231 231 232 234 234 234 236 237 238 240 241 242 243 245 247 249 250 251 252 254 255 255 256 257 259 261 263 265 267 270 272 273 274 275 277 278 280 281 282
229 228 228 229 229 231 231 229 228 230 231 232 232 233 234 235 236 237 239 240 241 243 244 246 248 249 250 251 253 254 256 257 258 260 261 263 265 266 268 269 271 273 274 276 277 278 280 281 282
229 227 228 229 230 231 232 232 228 229 231 232 232 233 234 235 236 237 239 240 241 243 244 246 248 250 251 253 254 255 257 258 259 261 263 264 266 267 269 270 271 272 274 276 277 279 280 281 283
229 227 228 229 231 233 233 234 229 229 230 231 232 233 234 235 236 238 239 240 241 242 244 246 248 250 252 254 255 257 258 258 260 262 264 266 267 268 269 270 271 272 274 276 278 279 280 281 283
227 226 228 230 232 235 233 236 233 230 231 232 233 235 235 236 236 238 240 241 242 243 244 246 248 251 253 255 256 258 258 259 261 263 264 266 268 269 270 271 272 273 274 276 278 280 282 282 284
224 225 228 230 233 236 234 236 235 232 231 232 234 235 236 236 237 238 240 242 244 245 246 247 249 251 254 256 258 259 260 261 262 263 265 266 268 269 270 271 272 274 275 276 277 280 282 283 284
226 227 229 232 236 238 237 237 236 234 233 233 234 235 236 237 238 239 241 243 244 246 248 249 250 252 254 256 258 260 261 262 263 264 265 266 268 269 271 271 272 274 275 276 277 279 281 283 284
225 226 229 234 238 240 239 238 237 236 236 235 235 236 237 238 239 240 241 243 245 247 249 250 251 253 255 257 258 260 262 263 264 265 266 267 269 270 271 272 273 274 275 276 278 279 281 283 284
228 228 229 231 237 240 239 239 237 237 238 238 237 238 238 239 240 242 243 245 246 248 249 250 252 253 254 256 258 260 261 262 264 265 266 268 269 270 271 273 274 275 276 278 279 280 282 283 284
228 229 229 232 238 240 241 239 239 240 240 240 239 239 239 240 241 243 244 246 247 249 250 252 253 254 254 256 258 259 260 262 263 264 266 268 269 270 271 273 274 275 276 278 279 281 283 284 284
229 230 231 234 238 240 242 240 240 242 241 241 241 240 240 241 242 243 244 246 247 248 250 252 254 255 256 257 258 259 260 262 263 264 265 267 269 270 272 273 275 276 277 278 279 281 283 284 285
Height
5811 5814 5817 5819 5822 5825 5828 5832 5834 5836 5838 5840 5842 5844 5847 5849 5852 5856 5856 5856 5858 5859 5861 5862 5863 5865 5866 5867 5868 5869 5869 5870 5871 5872 5872 5873 5874 5874 5875 5875 5876 5876 5876 5876 5876 5876 5876 5876 5875
5806 5809 5812 5814 5817 5820 5826 5829 5831 5833 5835 5837 5839 5841 5844 5846 5848 5851 5852 5854 5855 5857 5859 5860 5861 5863 5864 5865 5866 5867 5868 5869 5869 5870 5871 5872 5872 5873 5874 5874 5874 5875 5875 5875 5875 5875 5875 5874 5874
5800 5803 5806 5809 5812 5817 5822 5825 5827 5828 5831 5834 5836 5838 5841 5843 5845 5848 5849 5851 5853 5855 5856 5858 5859 5860 5862 5863 5864 5865 5866 5867 5868 5869 5869 5870 5871 5871 5872 5872 5873 5873 5873 5873 5873 5873 5873 5873 5872
5794 5797 5800 5803 5807 5813 5817 5820 5822 5824 5827 5830 5833 5835 5838 5840 5842 5845 5846 5848 5850 5852 5853 5855 5857 5858 5859 5861 5862 5863 5864 5865 5866 5867 5867 5868 5869 5869 5870 5870 5871 5871 5871 5871 5871 5871 5871 5871 5870
5787 5790 5793 5797 5803 5808 5812 5815 5817 5820 5823 5827 5829 5832 5834 5837 5839 5841 5843 5845 5847 5849 5851 5852 5854 5855 5857 5858 5859 5860 5861 5862 5863 5864 5865 5866 5866 5867 5867 5868 5868 5868 5868 5868 5868 5868 5868 5868 5868
5780 5784 5787 5792 5798 5803 5807 5809 5812 5815 5819 5822 5825 5828 5830 5833 5835 5837 5839 5841 5844 5846 5847 5849 5851 5852 5854 5855 5856 5858 5859 5860 5861 5862 5862 5863 5864 5864 5865 5865 5865 5865 5866 5866 5866 5866 5866 5865 5865
5774 5777 5781 5787 5792 5797 5801 5804 5807 5810 5814 5817 5820 5823 5826 5828 5831 5833 5835 5838 5840 5842 5844 5846 5847 5849 5850 5852 5853 5855 5856 5857 5858 5859 5859 5860 5861 5861 5862 5862 5862 5863 5863 5863 5863 5863 5862 5862 5862
5766 5771 5774 5780 5785 5791 5795 5797 5801 5804 5808 5812 5815 5819 5822 5824 5826 5829 5831 5834 5836 5838 5840 5842 5844 5845 5847 5848 5850 5851 5852 5853 5854 5855 5856 5857 5857 5858 5858 5859 5859 5859 5859 5859 5859 5859 5859 5859 5858
5758 5764 5768 5774 5779 5785 5788 5791 5795 5798 5802 5806 5810 5814 5817 5819 5822 5825 5827 5830 5832 5834 5836 5838 5840 5841 5843 5844 5846 5847 5849 5850 5851 5852 5853 5853 5854 5854 5855 5855 5855 5855 5855 5856 5856 5855 5855 5855 5854
5750 5756 5763 5768 5772 5777 5781 5784 5788 5792 5796 5800 5804 5808 5811 5814 5817 5820 5822 5825 5827 5829 5831 5833 5835 5837 5839 5840 5842 5843 5845 5846 5847 5848 5849 5849 5850 5850 5851 5851 5851 5851 5852 5852 5852 5851 5851 5851 5850
5741 5749 5755 5760 5764 5768 5773 5777 5781 5785 5790 5794 5798 5802 5805 5808 5811 5814 5817 5820 5822 5824 5826 5828 5830 5832 5834 5836 5837 5839 5840 5841 5842 5843 5844 5845 5845 5846 5846 5847 5847 5847 5847 5847 5847 5847 5847 5847 5846
5733 5740 5746 5751 5755 5760 5765 5769 5774 5778 5784 5788 5792 5795 5799 5802 5806 5809 5811 5814 5817 5819 5821 5823 5825 5827 5829 5831 5832 5834 5835 5837 5838 5839 5840 5840 5841 5841 5842 5842 5842 5843 5843 5843 5843 5843 5842 5842 5842
5724 5731 5736 5741 5746 5752 5757 5762 5766 5772 5776 5780 5784 5788 5793 5796 5799 5803 5805 5808 5811 5814 5816 5818 5820 5822 5824 5825 5827 5829 5830 5832 5833 5834 5835 5836 5836 5837 5837 5838 5838 5838 5838 5838 5838 5838 5837 5837 5837
5716 5721 5727 5732 5738 5743 5749 5754 5759 5765 5769 5773 5778 5782 5786 5790 5793 5796 5800 5803 5806 5808 5810 5813 5815 5816 5818 5820 5822 5823 5825 5826 5828 5829 5830 5831 5831 5832 5832 5833 5833 5833 5833 5833 5833 5833 5832 5832 5831
5705 5711 5717 5723 5729 5735 5740 5745 5752 5758 5761 5766 5771 5775 5779 5783 5786 5790 5793 5796 5799 5802 5805 5807 5809 5811 5813 5815 5816 5818 5819 5821 5822 5823 5824 5825 5826 5827 5827 5828 5828 5828 5828 5828 5828 5827 5827 5826 5826
5694 5700 5707 5715 5721 5726 5732 5739 5745 5748 5753 5758 5763 5768 5772 5776 5780 5783 5787 5790 5793 5796 5799 5801 5803 5805 5807 5809 5810 5812 5813 5815 5816 5817 5819 5820 5820 5821 5822 5822 5822 5822 5822 5822 5822 5821 5821 5820 5819
5683 5690 5698 5707 5712 5717 5722 5730 5736 5740 5745 5751 5756 5761 5765 5769 5773 5777 5780 5783 5787 5790 5792 5795 5797 5799 5801 5803 5804 5806 5807 5809 5810 5811 5812 5813 5814 5815 5815 5816 5816 5816 5816 5816 5816 5815 5815 5814 5813
5677 5684 5691 5697 5703 5707 5713 5721 5727 5731 5736 5743 5748 5753 5758 5762 5766 5769 5773 5776 5780 5783 5786 5788 5791 5793 5795 5796 5798 5799 5801 5802 5803 5805 5806 5807 5808 5808 5809 5809 5809 5809 5809 5809 5809 5808 5807 5806 5805
5668 5674 5681 5688 5693 5697 5703 5711 5717 5722 5728 5734 5740 5745 5750 5755 5758 5762 5765 5769 5772 5776 5778 5781 5784 5786 5788 5789 5791 5792 5794 5795 5796 5798 5799 5800 5801 5801 5802 5802 5802 5802 5802 5802 5801 5800 5799 5798 5797
5658 5664 5671 5678 5683 5688 5694 5701 5708 5713 5720 5726 5732 5737 5742 5747 5750 5754 5758 5761 5765 5768 5771 5774 5776 5778 5780 5782 5784 5785 5786 5788 5789 5790 5791 5792 5793 5794 5794 5795 5794 5794 5794 5793 5793 5792 5791 5790 5788
5649 5657 5664 5669 5674 5678 5684 5691 5698 5705 5711 5717 5723 5729 5734 5739 5743 5747 5750 5754 5757 5761 5764 5766 5768 5770 5772 5774 5776 5777 5779 5780 5782 5783 5784 5785 5785 5786 5786 5786 5786 5786 5786 5785 5784 5783 5782 5781 5779
5642 5650 5655 5660 5665 5670 5676 5681 5691 5697 5703 5709 5716 5721 5726 5731 5735 5739 5742 5746 5749 5753 5756 5758 5760 5762 5764 5766 5768 5769 5771 5772 5774 5775 5775 5776 5777 5777 5778 5778 5777 5777 5777 5776 5775 5774 5773 5771 5770
5635 5641 5647 5652 5656 5661 5667 5672 5682 5688 5695 5702 5708 5713 5718 5723 5727 5731 5734 5738 5741 5744 5747 5750 5752 5754 5756 5758 5760 5761 5763 5764 5765 5766 5767 5767 5768 5768 5768 5768 5768 5768 5768 5767 5765 5764 5762 5761 5759
5627 5634 5638 5643 5647 5652 5660 5664 5673 5681 5689 5695 5700 5705 5710 5714 5718 5722 5726 5729 5732 5735 5738 5741 5744 5746 5748 5749 5751 5752 5754 5755 5756 5757 5758 5758 5759 5759 5759 5759 5759 5758 5758 5757 5755 5753 5752 5750 5748
5620 5626 5631 5634 5638 5644 5653 5656 5665 5675 5682 5687 5692 5696 5700 5705 5709 5713 5717 5721 5724 5727 5730 5732 5735 5737 5739 5740 5742 5743 5745 5746 5747 5748 5748 5749 5749 5749 5749 5749 5749 5748 5747 5746 5745 5743 5742 5740 5737
5614 5620 5625 5630 5634 5640 5644 5649 5659 5667 5673 5678 5683 5687 5691 5696 5700 5704 5708 5712 5715 5718 5720 5723 5725 5727 5729 5731 5732 5734 5735 5736 5737 5738 5738 5739 5739 5740 5739 5739 5738 5738 5737 5736 5734 5733 5731 5728 5726
5607 5612 5619 5623 5627 5631 5636 5643 5652 5658 5664 5669 5674 5679 5683 5687 5691 5695 5699 5703 5706 5708 5711 5713 5715 5718 5719 5721 5723 5724 5725 5726 5727 5728 5728 5729 5729 5729 5729 5728 5728 5727 5726 5725 5724 5722 5720 5717 5714
5602 5607 5611 5615 5619 5623 5629 5636 5644 5650 5655 5660 5665 5670 5674 5678 5682 5686 5690 5693 5696 5698 5701 5703 5705 5707 5709 5711 5712 5714 5715 5716 5716 5717 5718 5718 5719 5719 5718 5718 5717 5716 5715 5714 5712 5710 5708 5706 5703
5596 5600 5604 5608 5612 5617 5621 5631 5637 5642 5646 5651 5655 5660 5664 5669 5673 5676 5680 5683 5686 5688 5691 5693 5695 5696 5698 5700 5702 5703 5704 5705 5706 5706 5707 5707 5708 5707 5707 5707 5706 5705 5704 5702 5700 5698 5696 5694 5691
5589 5594 5599 5603 5606 5610 5615 5625 5628 5633 5637 5641 5646 5650 5655 5659 5663 5666 5670 5673 5675 5678 5680 5682 5684 5686 5688 5689 5691 5692 5693 5694 5695 5695 5696 5696 5696 5696 5696 5695 5694 5693 5692 5690 5688 5687 5684 5682 5679